#timestamp,LO_Frequency,Hit,StdDev 
1605744015.2,286047000.5,N
1605744035.1,286047001.2,N
1605744036.0,286047001.2,N
1605744055.8,286047000.6,N
1605744075.6,286047000.2,N
1605744095.5,286046999.7,N
1605744115.3,286047002.0,N
1605744135.1,286047000.8,N
1605744155.8,286047000.8,N
1605744175.7,286046998.6,N
1605744195.5,286046998.9,N
1605744215.3,286046999.3,N
1605744235.2,286047000.7,N
1605744255.0,286047001.2,N
1605744255.9,286047001.2,N
1605744275.7,286046998.2,N
1605744295.6,286047001.0,N
1605744315.4,286046999.9,N
1605744335.2,286047000.6,N
1605744355.1,286047000.9,N
1605744356.0,286047000.9,N
1605744375.8,286046998.2,N
1605744395.6,286046998.5,N
1605744415.5,286047001.1,N
1605744435.3,286046999.2,N
1605744455.1,286047000.7,N
1605744475.9,286047000.7,N
1605744495.7,286047000.4,N
1605744515.5,286047001.2,N
1605744535.4,286046998.3,N
1605744555.2,286047000.7,N
1605744575.0,286046998.6,N
1605744575.9,286046998.6,N
1605744595.8,286047000.7,N
1605744615.6,286047000.9,N
1605744635.4,286046998.6,N
1605744655.3,286046998.7,N
1605744675.1,286046998.3,N
1605744676.0,286046998.3,N
1605744695.8,286046998.1,N
1605744715.7,286047001.0,N
1605744735.5,286046999.9,N
1605744755.3,286047000.8,N
1605744775.2,286046998.3,N
1605744795.9,286046998.6,N
1605744815.7,286046998.1,N
1605744835.6,286046998.3,N
1605744855.4,286046998.8,N
1605744875.2,286046998.6,N
1605744895.1,286046998.4,N
1605744896.0,286046998.4,N
1605744915.8,286046998.8,N
1605744935.6,286046998.2,N
1605744955.5,286046998.5,N
1605744975.3,286046998.5,N
1605744995.1,286047001.1,N
1605745015.9,286046998.8,N
1605745035.7,286046998.4,N
1605745055.5,286047000.7,N
1605745075.4,286046998.4,N
1605745095.2,286046998.3,N
1605745115.0,286046998.3,N
1605745115.9,286046998.3,N
1605745135.8,286046998.2,N
1605745155.6,286047000.9,N
1605745175.4,286047000.5,N
1605745195.2,286047000.2,N
1605745215.1,286046998.6,N
1605745216.0,286046998.6,N
1605745235.8,286046998.6,N
1605745255.7,286046998.2,N
1605745275.5,286046998.2,N
1605745295.3,286047000.0,N
1605745315.1,286047000.6,N
1605745335.9,286047001.2,N
1605745355.7,286047001.2,N
1605745375.5,286047000.9,N
1605745395.4,286047000.6,N
1605745415.2,286047000.0,N
1605745435.0,286046998.3,N
1605745435.9,286046998.3,N
1605745455.8,286046999.2,N
1605745475.6,286046999.3,N
1605745495.4,286046998.4,N
1605745515.3,286046998.6,N
1605745535.1,286046998.2,N
1605745555.8,286046998.7,N
1605745575.7,286046998.2,N
1605745595.5,286046998.1,N
1605745615.3,286046999.1,N
1605745635.2,286046998.5,N
1605745655.9,286046998.3,N
1605745675.7,286046999.1,N
1605745695.6,286047000.6,N
1605745715.4,286046998.3,N
1605745735.2,286046998.2,N
1605745755.1,286046999.0,N
1605745756.0,286046999.0,N
1605745775.8,286046999.3,N
1605745795.6,286047000.7,N
1605745815.5,286047001.1,N
1605745835.3,286046998.1,N
1605745855.1,286046998.6,N
1605745875.9,286047000.8,N
1605745895.7,286047000.8,N
1605745915.5,286047000.6,N
1605745935.4,286047000.6,N
1605745955.2,286046998.1,N
1605745975.0,286046998.5,N
1605745975.9,286046998.5,N
1605745995.8,286046998.9,N
1605746015.6,286046999.2,N
1605746035.4,286046999.3,N
1605746055.3,286046999.1,N
1605746075.1,286046998.2,N
1605746076.0,286046998.2,N
1605746095.8,286047000.6,N
1605746115.7,286046999.7,N
1605746135.5,286047000.2,N
1605746155.3,286047000.9,N
1605746175.2,286046999.8,N
1605746195.9,286047002.3,N
1605746215.7,286047002.7,N
1605746235.6,286047002.8,N
1605746255.4,286047000.1,N
1605746275.2,286046999.8,N
1605746295.0,286047000.2,N
1605746296.0,286047000.2,N
1605746315.8,286046999.8,N
1605746335.6,286047002.7,N
1605746355.5,286047000.9,N
1605746375.3,286046999.9,N
1605746395.1,286047000.5,N
1605746415.8,286047000.9,N
1605746435.7,286046999.9,N
1605746455.5,286047000.2,N
1605746475.3,286047000.1,N
1605746495.2,286047002.8,N
1605746515.0,286047002.1,N
1605746515.9,286047002.1,N
1605746535.7,286047002.5,N
1605746555.6,286047002.8,N
1605746575.4,286047002.4,N
1605746595.2,286047001.5,N
1605746615.1,286047001.6,N
1605746616.0,286047001.6,N
1605746635.8,286047003.9,Y
1605746655.6,286047000.1,P
1605746675.5,286047002.7,P
1605746695.3,286047002.2,N
1605746715.1,286046999.8,N
1605746735.9,286047001.6,N
1605746755.7,286047002.7,N
1605746775.5,286047002.4,N
1605746795.4,286047002.5,N
1605746815.2,286047001.9,N
1605746835.0,286047001.6,N
1605746835.9,286047001.6,N
1605746855.8,286047002.4,N
1605746875.6,286047001.7,N
1605746895.4,286047002.1,N
1605746915.3,286047002.1,N
1605746935.1,286047002.1,N
1605746955.8,286047004.0,Y
1605746975.7,286046999.7,P
1605746995.5,286047000.7,N
1605747015.3,286046999.8,N
1605747035.2,286047000.1,N
1605747055.9,286046999.9,N
1605747075.7,286046999.7,N
1605747095.6,286047002.7,Y
1605747115.4,286047002.7,P
1605747135.2,286047000.7,N
1605747155.1,286047000.5,N
1605747156.0,286047000.5,N
1605747175.8,286047002.7,N
1605747195.6,286047002.7,N
1605747215.5,286047002.6,N
1605747235.3,286047002.3,N
1605747255.1,286047000.3,N
1605747275.9,286047002.7,N
1605747295.7,286047002.4,N
1605747315.5,286047000.1,N
1605747335.4,286047000.5,N
1605747355.2,286047000.0,N
1605747375.0,286047000.1,N
1605747375.9,286047000.1,N
1605747395.8,286046999.9,N
1605747415.6,286047002.2,N
1605747435.4,286047002.2,N
1605747455.3,286047000.2,N
1605747475.1,286047000.1,N
1605747476.0,286047000.1,N
1605747495.8,286046999.8,N
1605747515.7,286047002.6,N
1605747535.5,286047002.1,N
1605747555.3,286047001.6,N
1605747575.2,286047002.2,N
1605747595.9,286047001.7,N
